Location: Hermaringen
(48.5952°N, 10.2585°E)
Time: 18:02:59
(UTC+00:00)

Transit 2A - Visible Passes

Search period start: 16 February 2026 00:00
Search period end: 26 February 2026 00:00
Orbit: 589 x 955 km, 66.7° (Epoch: 16 February)

Date Brightness Start Highest point End Pass type
(mag) Time Alt. Az. Time Alt. Az. Time Alt. Az.
16 Feb 8.1 18:00:38 10° NNW 18:04:42 18° NNE 18:07:31 13° NE visible
16 Feb 7.4 19:43:41 10° NNW 19:47:52 35° N 19:47:52 35° N visible
16 Feb 8.8 21:27:00 10° NW 21:28:13 16° NW 21:28:13 16° NW visible
17 Feb 8.2 17:24:08 10° NNW 17:27:49 16° NNE 17:31:23 10° NE visible
17 Feb 7.2 19:07:22 10° NNW 19:12:42 33° NNE 19:12:42 33° NNE visible
17 Feb 8.2 20:50:29 10° NW 20:53:03 26° NW 20:53:03 26° NW visible
18 Feb 7.4 18:31:03 10° NNW 18:36:13 27° NNE 18:37:34 25° NE visible
18 Feb 7.4 20:14:03 10° NW 20:17:55 40° NW 20:17:55 40° NW visible
19 Feb 7.7 17:54:43 10° NNW 17:59:28 22° NNE 18:02:28 16° ENE visible
19 Feb 6.6 19:37:39 10° NNW 19:42:49 58° N 19:42:49 58° N visible
19 Feb 8.7 21:21:35 10° NW 21:23:10 16° WNW 21:23:10 16° WNW visible
20 Feb 7.9 17:18:21 10° NNW 17:22:39 19° NNE 17:26:47 10° ENE visible
20 Feb 6.4 19:01:19 10° NNW 19:07:17 50° NE 19:07:46 49° ENE visible
20 Feb 8.0 20:44:49 10° NW 20:48:08 28° WNW 20:48:08 28° WNW visible
21 Feb 6.9 18:24:59 10° NNW 18:30:42 38° NE 18:32:47 29° E visible
21 Feb 7.0 20:08:14 10° NW 20:13:09 47° W 20:13:09 47° W visible
22 Feb 7.2 17:48:41 10° NNW 17:54:03 31° NE 17:57:53 16° E visible
22 Feb 6.2 19:31:45 10° NW 19:37:46 73° WSW 19:38:14 69° SSW visible
22 Feb 8.8 21:17:09 10° WNW 21:18:37 12° W 21:18:37 12° W visible
23 Feb 6.1 18:55:19 10° NW 19:01:24 82° NE 19:03:25 42° SE visible
23 Feb 8.3 20:39:39 10° WNW 20:43:42 20° WSW 20:43:47 19° WSW visible
24 Feb 6.3 18:18:57 10° NNW 18:24:58 61° NE 18:28:41 21° SE visible
24 Feb 7.8 20:02:43 10° NW 20:07:38 28° WSW 20:09:03 25° SW visible
25 Feb 6.6 17:42:36 10° NNW 17:48:27 46° NE 17:53:47 10° ESE visible
25 Feb 7.3 19:26:01 10° NW 19:31:31 40° WSW 19:34:27 23° SSW visible
